This is the latest recevied weather packets stored in our database for station/object GW4003. If no packets are shown the sender has not sent any weather packets the latest 10 day(s).
| Time | Temp. | Humidity | Pressure | Rain* | Wind** | Luminosity | Snow |
|---|---|---|---|---|---|---|---|
| 1788457355 | 28.89° C | 24% | 1018.1 hPa | 0 mm | - | - | - |
| 1788457052 | 28.89° C | 23% | 1018.2 hPa | 0 mm | - | - | - |
| 1788456748 | 29.44° C | 22% | 1018.2 hPa | 0 mm | - | - | - |
| 1788456444 | 28.89° C | 27% | 1018.2 hPa | 0 mm | - | - | - |
| 1788456140 | 28.33° C | 25% | 1018.2 hPa | 0 mm | - | - | - |
| 1788455837 | 28.33° C | 25% | 1018.3 hPa | 0 mm | - | - | - |
| 1788455533 | 28.33° C | 25% | 1018.2 hPa | 0 mm | - | - | - |
| 1788455230 | 28.33° C | 24% | 1018.2 hPa | 0 mm | - | - | - |
| 1788454940 | 28.33° C | 27% | 1018.2 hPa | 0 mm | - | - | - |
| 1788454622 | 27.22° C | 29% | 1018.3 hPa | 0 mm | - | - | - |
| 1788454319 | 27.22° C | 29% | 1018.3 hPa | 0 mm | - | - | - |
| 1788454015 | 27.22° C | 29% | 1018.3 hPa | 0 mm | - | - | - |
| 1788453711 | 26.67° C | 29% | 1018.3 hPa | 0 mm | - | - | - |
| 1788453410 | 26.67° C | 29% | 1018.3 hPa | 0 mm | - | - | - |
| 1788453103 | 26.67° C | 30% | 1018.4 hPa | 0 mm | - | - | - |
| 1788452799 | 26.11° C | 31% | 1018.5 hPa | 0 mm | - | - | - |
| 1788452496 | 26.11° C | 31% | 1018.5 hPa | 0 mm | - | - | - |
| 1788452192 | 26.11° C | 31% | 1018.5 hPa | 0 mm | - | - | - |
| 1788451888 | 25.56° C | 31% | 1018.5 hPa | 0 mm | - | - | - |
| 1788451584 | 26.11° C | 30% | 1018.4 hPa | 0 mm | - | - | - |
| 1788451280 | 26.11° C | 33% | 1018.4 hPa | 0 mm | - | - | - |
| 1788450976 | 25.56° C | 35% | 1018.4 hPa | 0 mm | - | - | - |
| 1788450673 | 24.44° C | 33% | 1018.4 hPa | 0 mm | - | - | - |
| 1788450369 | 24.44° C | 35% | 1018.4 hPa | 0 mm | - | - | - |
| 1788450065 | 23.89° C | 36% | 1018.3 hPa | 0 mm | - | - | - |
* Rain latest hour (hover to see other rain measurements)
** Current wind speed in m/s (hover to see current wind gust speed)